Location: Unspecified
(52.4292°N, 19.3359°E)
Time: 16:07:10
(UTC+01:00)

A-11 Canister half - Pass Details

Date: 16 October 2025
Orbit: 1526 x 1682 km, 47.3° (Epoch: 13 November)

Event Time Altitude Azimuth Distance (km) Brightness Sun altitude
Exits shadow 04:57:37 28° 237° (WSW) 2,548 9.6 -20.8°
Maximum altitude 05:02:50 61° 168° (SSE) 1,698 9.2 -20.0°
Drops below altitude 10° 05:11:58 10° 91° (E) 3,716 12.2 -18.7°
Sets 05:15:04 0° 89° (E) 4,713 13.2 -18.2°
